Regional Weather Roundup
Issued by NWS Glasgow, MT

Home | Current Version | Previous Version | Text Only | Print | Product List | Glossary On
Versions: 1 2 3 4 5 6 7 8 9 10 11 12 13 14 15 16 17 18 19 20 21 22 23 24 25 26 27 28 29 30 31 32 33 34 35 36 37 38 39 40 41 42 43 44 45 46 47 48 49 50
000
ASUS45 KGGW 281215
RWRGGW
HOURLY WEATHER ROUNDUP FOR NORTHEAST MONTANA
NATIONAL WEATHER SERVICE GLASGOW MONTANA
600 AM MDT SAT MAR 28 2015

NOTE: "FAIR" INDICATES FEW OR NO CLOUDS BELOW 12,000 FEET WITH NO
SIGNIFICANT WEATHER AND/OR OBSTRUCTIONS TO VISISBILITY.

NORTHEAST MONTANA


CITY           SKY/WX    TMP DP  RH WIND       PRES   REMARKS
GLASGOW        CLEAR     37  33  85 E13       29.71F
6HR MIN TEMP:  37; 6HR MAX TEMP:  45;

PLENTYWOOD       N/A     37  34  89 SE6         N/A
WOLF POINT     PTCLDY    35  31  85 NE8       29.75F
JORDAN           N/A     32  30  92 CALM      29.74F
WINNETT          N/A     41  32  70 SW3         N/A
SIDNEY         CLEAR     34  30  86 CALM      29.80F
GLENDIVE         N/A     39  34  81 S10       29.80F
MALTA            N/A     37  33  85 E1          N/A
SCOBEY           N/A     35  28  76 CALM      29.72F

FORT PECK REPORTS


CITY           SKY/WX    TMP DP  RH WIND       PRES   REMARKS
FORT PECK        N/A     44  34  67 SE8         N/A
THE PINES        N/A     44  32  62 SW6         N/A

SOUTHEAST MONTANA


CITY           SKY/WX    TMP DP  RH WIND       PRES   REMARKS
BILLINGS       CLEAR     52  32  46 SW15      29.83F
MILES CITY     CLEAR     41  31  67 SE9       29.80F
BAKER          CLEAR     34  31  88 SE5       29.84F
LIVINGSTON     CLEAR     58  31  35 SW32G44   29.84F

CENTRAL MONTANA


CITY           SKY/WX    TMP DP  RH WIND       PRES   REMARKS
HAVRE          PTCLDY    43  35  73 SW8       29.66F
LEWISTOWN      PTCLDY    50  33  52 SW15      29.78F
GREAT FALLS    CLEAR     52  33  48 S17       29.70F
CUT BANK       MOCLDY    48  41  76 W10       29.69F
HELENA         PTCLDY    43  33  68 W3        29.78F
BUTTE          PTCLDY    30  27  88 CALM      29.89F
BOZEMAN        CLEAR     39  31  72 SE12      29.86F

WESTERN MONTANA


CITY           SKY/WX    TMP DP  RH WIND       PRES   REMARKS
MISSOULA       MOCLDY    41  38  89 CALM      29.80F
KALISPELL      NOT AVBL

NORTH DAKOTA


CITY           SKY/WX    TMP DP  RH WIND       PRES   REMARKS
WILLISTON      CLEAR     37  33  85 S7        29.81F
DICKINSON      CLEAR     36  31  82 S12       29.84F
MINOT          CLOUDY    26  24  92 SE10      29.90F FOG
BISMARCK       FOG       29  28  96 SE10      29.97F VSB 1/2

SOUTHERN SASKATCHEWAN


CITY           SKY/WX    TMP DP  RH WIND       PRES   REMARKS
REGINA         PTCLDY    32  32 100 SE20      29.70F
ESTEVAN        MOCLDY    30  28  93 SE9       29.81F
SWIFT CURRENT  CLOUDY    48  37  66 SW15G21   29.58F



USA.gov is the U.S. government's official web portal to all federal, state and local government web resources and services.